TITAN 3C TRANSTAGE DEB, 26777

Orbit data source: Space-Track

TITAN 3C TRANSTAGE DEB, 26777 is space debris in HEO originally from a launch on Tue, 21 Dec 1965 UTC launched from the Air Force Eastern Test Range (AFETR). Debris objects in space refer to the collection of defunct objects orbiting the Earth. Examples of debris include non-operational satellites, rocket bodies, and fragments generated from explosions, collisions, or faulty payload assembly.

Loading next visibility...
Identifier
26777, 1965-108AV
Orbit
HEO
Country
Flag of USUS
Related business
Manufacturer
Unknown
Mission
Spacecraft
Bus & Motor
Unknown
Mass
Unknown
Launch date (UTC)
1965-12-21 (60 years ago)
Launch vehicle
Unknown
Launch site
Air Force Eastern Test Range (AFETR)
Object type
Payload
Rocket body
Debris
Shape & HBR
Unknown shape, 0.2 m
Radar Cross Section
Medium (>0.1 m² and <1 m²)

Expand to show TLE details & history
Last TLE update: 3 days ago

TLE from 3 days ago
0 TITAN 3C TRANSTAGE DEB
1 26777U 65108AV  25346.52755073 -.00000178  00000-0  00000-0 0  9990
2 26777  27.0547 260.8358 6677000 328.8249 216.1206  2.56592375 41243
Epoch: 2025-12-12T12:39Z
TLE epoch observation values (Epoch: 2025-12-12T12:39:40.383Z)
Latitude
9.5147°
Longitude
150.31223°
Altitude
30,136.802 km
Speed
2.036 km/s
True Right ascension
04h 06m 47s
True Declination
9° 30' 14"
Sunlit
Object was in daylight at epoch
Visualization orbit readout
Latitude
Unknown
Longitude
Unknown
Altitude
Unknown
Speed
Unknown
Apparent Right ascension
Unknown
Apparent Declination
Unknown
Sunlit
N/A
Visualization observer readout
Local Sidereal Time
08:50:54
Azimuth
Unknown
Elevation
Unknown
Doppler factor
Unknown
Orbital elements
Apogee altitude
31,213.147 km
Perigee altitude
1,112.169 km
Semi-major axis
22,540.795 km
Eccentricity
0.6677
Inclination
27.0547°
RAAN
260.8358°
Arg. of periapsis
328.8249°
True anomaly
189.85826°
Mean anomaly
216.1206°
Eccentric anomaly
201.87001°
Mean motion
0.64134 °/min
Orbital period
561.32 mins
BSTAR
0
Loading maneuver chart data...
Computing Atmospheric mass density...

Documentation

Showing up to 5 results
|